Location: *
(35.2348°S, 91.3916°E)
Time: 17:13:57
(UTC+00:00)

Cosmos 2341 Rocket - Pass Details

Date: 23 October 2019
Orbit: 969 x 1004 km, 82.9° (Epoch: 22 November)

Event Time Altitude Azimuth Distance (km) Brightness Sun altitude
Rises 21:55:00 0° 189° (S) 3,757 7.3 -13.6°
Reaches altitude 10° 21:57:34 10° 190° (S) 2,797 6.6 -13.1°
Maximum altitude 22:03:59 76° 273° (W) 1,032 4.0 -11.9°
Drops below altitude 10° 22:10:16 10° 358° (N) 2,741 6.1 -10.7°
Sets 22:12:45 0° 360° (N) 3,676 6.8 -10.2°
